ARG1527 SACO-SAEZ

Flight info

Callsign ARG1527
Flight time 1h 1m
Altitude 37000
Route UTRAX1C UTRAX UW24 SNT SNT7X
Aircraft B738/M-SDE2E3FGHIRWXY/LB1

Departure

Time 2026-04-28 17:46
Airport Ingeniero Aeronáutico Ambrosio L.V. Taravella International Airport (SACO)

Arrival

Time 2026-04-28 18:48
Airport Ezeiza International Airport - Ministro Pistarini (SAEZ)
Time Latitude Longitude Altitude Speed Heading
2026-04-28 17:26 -31.31543 -64.21183 1561 ft 0 kts 267°
2026-04-28 17:38 -31.31543 -64.21171 1561 ft 4 kts 268°
2026-04-28 17:38 -31.31543 -64.21141 1561 ft 4 kts 273°
2026-04-28 17:38 -31.31545 -64.21114 1561 ft 3 kts 286°
2026-04-28 17:39 -31.31551 -64.21099 1561 ft 2 kts 310°
2026-04-28 17:39 -31.31559 -64.21091 1560 ft 2 kts 347°
2026-04-28 17:39 -31.31581 -64.21093 1560 ft 2 kts 18°
2026-04-28 17:40 -31.31592 -64.21097 1560 ft 2 kts 22°
2026-04-28 17:40 -31.31596 -64.21099 1559 ft 0 kts 23°
2026-04-28 17:41 -31.31589 -64.21097 1559 ft 2 kts
2026-04-28 17:42 -31.31562 -64.21089 1560 ft 7 kts 17°
2026-04-28 17:42 -31.31505 -64.21059 1562 ft 10 kts 36°
2026-04-28 17:42 -31.31466 -64.20973 1562 ft 14 kts 81°
2026-04-28 17:42 -31.31432 -64.20853 1559 ft 18 kts 36°
2026-04-28 17:43 -31.31297 -64.20832 1562 ft 22 kts 360°
2026-04-28 17:43 -31.31146 -64.20831 1565 ft 21 kts
2026-04-28 17:43 -31.31001 -64.20829 1569 ft 21 kts 357°
2026-04-28 17:43 -31.30849 -64.20836 1573 ft 25 kts 359°
2026-04-28 17:44 -31.30661 -64.20839 1580 ft 30 kts 359°
2026-04-28 17:44 -31.30438 -64.20840 1588 ft 34 kts 358°
2026-04-28 17:44 -31.30189 -64.20847 1596 ft 37 kts 360°
2026-04-28 17:44 -31.29935 -64.20850 1608 ft 35 kts 359°
2026-04-28 17:45 -31.29759 -64.20857 1617 ft 25 kts 350°
2026-04-28 17:45 -31.29634 -64.20895 1615 ft 12 kts 342°
2026-04-28 17:45 -31.29588 -64.20866 1618 ft 7 kts 99°
2026-04-28 17:45 -31.29631 -64.20849 1615 ft 10 kts 181°
2026-04-28 17:46 -31.29979 -64.20848 1609 ft 95 kts 179°
2026-04-28 17:46 -31.30932 -64.20835 1614 ft 171 kts 179°
2026-04-28 17:46 -31.32256 -64.20852 2098 ft 206 kts 180°
2026-04-28 17:46 -31.33719 -64.20850 2815 ft 213 kts 176°
2026-04-28 17:47 -31.35158 -64.20457 3529 ft 213 kts 153°
2026-04-28 17:47 -31.36352 -64.19429 4108 ft 215 kts 130°
2026-04-28 17:47 -31.37247 -64.17965 4417 ft 232 kts 119°
2026-04-28 17:47 -31.37858 -64.16906 4669 ft 240 kts 124°
2026-04-28 17:48 -31.39294 -64.14853 5403 ft 249 kts 131°
2026-04-28 17:48 -31.40515 -64.13380 6122 ft 252 kts 134°
2026-04-28 17:48 -31.41784 -64.11978 6848 ft 256 kts 136°
2026-04-28 17:48 -31.43099 -64.10589 7659 ft 255 kts 137°
2026-04-28 17:49 -31.44419 -64.09216 8463 ft 252 kts 139°
2026-04-28 17:49 -31.45740 -64.07842 9235 ft 252 kts 136°
2026-04-28 17:49 -31.46903 -64.06231 9666 ft 270 kts 126°
2026-04-28 17:49 -31.48001 -64.04348 10075 ft 285 kts 124°
2026-04-28 17:50 -31.49143 -64.02358 10357 ft 305 kts 125°
2026-04-28 17:50 -31.50394 -64.00232 10524 ft 328 kts 125°
2026-04-28 17:50 -31.51730 -63.98002 10689 ft 349 kts 126°
2026-04-28 17:50 -31.53173 -63.95607 10852 ft 368 kts 126°
2026-04-28 17:51 -31.54678 -63.93116 11210 ft 379 kts 126°
2026-04-28 17:51 -31.56218 -63.90564 11730 ft 385 kts 126°
2026-04-28 17:51 -31.57775 -63.87983 12290 ft 390 kts 127°
2026-04-28 17:51 -31.59329 -63.85404 12942 ft 393 kts 127°
2026-04-28 17:52 -31.60942 -63.82726 13437 ft 399 kts 127°
2026-04-28 17:52 -31.62542 -63.80066 14030 ft 404 kts 127°
2026-04-28 17:52 -31.65782 -63.74672 15452 ft 403 kts 127°
2026-04-28 17:53 -31.67411 -63.71959 15992 ft 410 kts 127°
2026-04-28 17:53 -31.69050 -63.69231 16490 ft 415 kts 127°
2026-04-28 17:53 -31.70740 -63.66415 17104 ft 418 kts 127°
2026-04-28 17:53 -31.72398 -63.63649 17703 ft 421 kts 127°
2026-04-28 17:54 -31.74087 -63.60829 18279 ft 424 kts 127°
2026-04-28 17:54 -31.75791 -63.57981 18774 ft 427 kts 127°
2026-04-28 17:54 -31.77511 -63.55105 19215 ft 432 kts 127°
2026-04-28 17:54 -31.79253 -63.52189 19657 ft 436 kts 127°
2026-04-28 17:55 -31.81003 -63.49257 20118 ft 440 kts 127°
2026-04-28 17:55 -31.82753 -63.46324 20495 ft 446 kts 128°
2026-04-28 17:55 -31.84546 -63.43315 20875 ft 451 kts 127°
2026-04-28 17:55 -31.86356 -63.40277 21386 ft 452 kts 127°
2026-04-28 17:56 -31.88168 -63.37233 21852 ft 455 kts 127°
2026-04-28 17:56 -31.90039 -63.34194 22234 ft 459 kts 129°
2026-04-28 17:56 -31.92010 -63.31218 22630 ft 463 kts 131°
2026-04-28 17:56 -31.94010 -63.28293 23009 ft 466 kts 131°
2026-04-28 17:57 -31.96063 -63.25314 23405 ft 469 kts 131°
2026-04-28 17:57 -31.98129 -63.22305 23779 ft 472 kts 131°
2026-04-28 17:57 -32.00174 -63.19305 24101 ft 476 kts 131°
2026-04-28 17:57 -32.02255 -63.16230 24291 ft 482 kts 131°
2026-04-28 17:58 -32.04346 -63.13126 24582 ft 485 kts 131°
2026-04-28 17:58 -32.06449 -63.09992 24939 ft 487 kts 131°
2026-04-28 17:58 -32.08558 -63.06843 25270 ft 489 kts 131°
2026-04-28 17:58 -32.10679 -63.03672 25546 ft 493 kts 131°
2026-04-28 17:59 -32.12788 -63.00517 25818 ft 496 kts 131°
2026-04-28 17:59 -32.14933 -62.97305 26103 ft 499 kts 131°
2026-04-28 17:59 -32.17087 -62.94079 26375 ft 502 kts 131°
2026-04-28 17:59 -32.19258 -62.90825 26667 ft 504 kts 131°
2026-04-28 18:00 -32.21441 -62.87550 26957 ft 506 kts 132°
2026-04-28 18:00 -32.23596 -62.84314 27221 ft 509 kts 132°
2026-04-28 18:00 -32.25797 -62.81009 27458 ft 512 kts 131°
2026-04-28 18:00 -32.28010 -62.77682 27662 ft 516 kts 131°
2026-04-28 18:01 -32.30234 -62.74334 27994 ft 516 kts 131°
2026-04-28 18:01 -32.32451 -62.70992 28407 ft 514 kts 131°
2026-04-28 18:01 -32.34626 -62.67711 28814 ft 514 kts 132°
2026-04-28 18:01 -32.36835 -62.64375 29209 ft 513 kts 132°
2026-04-28 18:02 -32.39039 -62.61045 29702 ft 511 kts 132°
2026-04-28 18:02 -32.41228 -62.57734 30110 ft 510 kts 132°
2026-04-28 18:02 -32.43404 -62.54442 30396 ft 511 kts 132°
2026-04-28 18:02 -32.45593 -62.51128 30737 ft 510 kts 132°
2026-04-28 18:03 -32.47784 -62.47806 31076 ft 509 kts 132°
2026-04-28 18:03 -32.49934 -62.44544 31484 ft 506 kts 132°
2026-04-28 18:03 -32.52093 -62.41264 31946 ft 502 kts 132°
2026-04-28 18:03 -32.54238 -62.38002 32416 ft 498 kts 132°
2026-04-28 18:04 -32.56355 -62.34778 33018 ft 490 kts 132°
2026-04-28 18:04 -32.58440 -62.31602 33580 ft 484 kts 132°
2026-04-28 18:04 -32.60508 -62.28452 33985 ft 482 kts 132°
2026-04-28 18:04 -32.62542 -62.25353 34260 ft 481 kts 132°
2026-04-28 18:05 -32.64598 -62.22219 34467 ft 482 kts 132°
2026-04-28 18:05 -32.65995 -62.20088 34511 ft 486 kts 132°
2026-04-28 18:05 -32.70804 -62.12585 34810 ft 492 kts 129°
2026-04-28 18:06 -32.72757 -62.09262 35276 ft 486 kts 128°
2026-04-28 18:06 -32.74628 -62.05996 35721 ft 481 kts 128°
2026-04-28 18:06 -32.76506 -62.02709 35877 ft 483 kts 128°
2026-04-28 18:06 -32.78413 -61.99389 35948 ft 486 kts 128°
2026-04-28 18:07 -32.80332 -61.96068 36108 ft 487 kts 128°
2026-04-28 18:07 -32.82254 -61.92758 36326 ft 486 kts 128°
2026-04-28 18:07 -32.84181 -61.89446 36447 ft 489 kts 128°
2026-04-28 18:07 -32.86131 -61.86100 36500 ft 492 kts 128°
2026-04-28 18:08 -32.88069 -61.82772 36727 ft 491 kts 128°
2026-04-28 18:08 -32.89992 -61.79461 37234 ft 484 kts 128°
2026-04-28 18:08 -32.91920 -61.76142 37104 ft 489 kts 128°
2026-04-28 18:08 -32.93853 -61.72812 37129 ft 488 kts 128°
2026-04-28 18:09 -32.97699 -61.66174 37121 ft 483 kts 128°
2026-04-28 18:09 -33.01479 -61.59637 37120 ft 480 kts 128°
2026-04-28 18:10 -33.05263 -61.53084 37119 ft 478 kts 128°
2026-04-28 18:10 -33.09035 -61.46539 37121 ft 477 kts 128°
2026-04-28 18:11 -33.12784 -61.40025 37119 ft 478 kts 128°
2026-04-28 18:11 -33.16558 -61.33453 37112 ft 479 kts 128°
2026-04-28 18:12 -33.20355 -61.26832 37122 ft 486 kts 128°
2026-04-28 18:12 -33.24172 -61.20161 37113 ft 490 kts 128°
2026-04-28 18:13 -33.28014 -61.13430 37104 ft 489 kts 128°
2026-04-28 18:13 -33.31814 -61.06721 37104 ft 488 kts 128°
2026-04-28 18:14 -33.35604 -60.99985 37097 ft 487 kts 128°
2026-04-28 18:14 -33.39377 -60.93279 37120 ft 487 kts 128°
2026-04-28 18:15 -33.43165 -60.86536 37109 ft 488 kts 128°
2026-04-28 18:15 -33.46951 -60.79780 37096 ft 488 kts 128°
2026-04-28 18:16 -33.50715 -60.73052 37093 ft 489 kts 128°
2026-04-28 18:16 -33.53871 -60.67401 37135 ft 489 kts 128°
2026-04-28 18:17 -33.57674 -60.60580 37106 ft 491 kts 128°
2026-04-28 18:17 -33.61449 -60.53797 37098 ft 492 kts 128°
2026-04-28 18:18 -33.65250 -60.46952 37099 ft 493 kts 127°
2026-04-28 18:18 -33.68416 -60.41243 37089 ft 494 kts 127°
2026-04-28 18:19 -33.72869 -60.33197 37098 ft 494 kts 127°
2026-04-28 18:19 -33.76669 -60.26315 37092 ft 494 kts 127°
2026-04-28 18:20 -33.80433 -60.19485 37089 ft 493 kts 127°
2026-04-28 18:20 -33.84244 -60.12565 36696 ft 500 kts 127°
2026-04-28 18:21 -33.86170 -60.09091 36434 ft 498 kts 128°
2026-04-28 18:21 -33.88093 -60.05646 36137 ft 493 kts 128°
2026-04-28 18:21 -33.90006 -60.02228 35841 ft 490 kts 128°
2026-04-28 18:21 -33.91907 -59.98833 35553 ft 490 kts 128°
2026-04-28 18:22 -33.93814 -59.95423 35268 ft 490 kts 128°
2026-04-28 18:22 -33.95717 -59.92012 34982 ft 490 kts 128°
2026-04-28 18:22 -33.97615 -59.88602 34699 ft 490 kts 128°
2026-04-28 18:22 -33.99536 -59.85147 34405 ft 497 kts 128°
2026-04-28 18:23 -34.01445 -59.81713 34169 ft 500 kts 128°
2026-04-28 18:23 -34.03379 -59.78223 33860 ft 498 kts 128°
2026-04-28 18:23 -34.05297 -59.74757 33538 ft 496 kts 128°
2026-04-28 18:23 -34.07220 -59.71281 33205 ft 495 kts 128°
2026-04-28 18:24 -34.09132 -59.67823 32892 ft 497 kts 128°
2026-04-28 18:24 -34.10409 -59.65515 32694 ft 501 kts 128°
2026-04-28 18:24 -34.12995 -59.60834 32290 ft 509 kts 128°
2026-04-28 18:24 -34.14969 -59.57256 31971 ft 516 kts 127°
2026-04-28 18:25 -34.16965 -59.53630 31719 ft 517 kts 127°
2026-04-28 18:25 -34.18960 -59.50000 31310 ft 515 kts 127°
2026-04-28 18:25 -34.20912 -59.46439 30763 ft 516 kts 126°
2026-04-28 18:26 -34.23305 -59.38173 29240 ft 531 kts 100°
2026-04-28 18:26 -34.23899 -59.33759 28452 ft 533 kts 100°
2026-04-28 18:26 -34.24507 -59.29323 27670 ft 534 kts 100°
2026-04-28 18:26 -34.25141 -59.24893 26919 ft 535 kts 100°
2026-04-28 18:27 -34.25796 -59.20472 26194 ft 535 kts 101°
2026-04-28 18:27 -34.26463 -59.16064 25499 ft 524 kts 101°
2026-04-28 18:27 -34.27114 -59.11787 24793 ft 508 kts 101°
2026-04-28 18:27 -34.27736 -59.07700 24119 ft 495 kts 101°
2026-04-28 18:28 -34.28350 -59.03647 23391 ft 482 kts 102°
2026-04-28 18:28 -34.28940 -58.99712 22625 ft 467 kts 104°
2026-04-28 18:28 -34.29510 -58.95897 21854 ft 454 kts 104°
2026-04-28 18:28 -34.30067 -58.92184 21115 ft 447 kts 104°
2026-04-28 18:29 -34.30622 -58.88483 20396 ft 446 kts 104°
2026-04-28 18:29 -34.31173 -58.84800 19692 ft 445 kts 104°
2026-04-28 18:29 -34.31820 -58.81147 18996 ft 440 kts 112°
2026-04-28 18:29 -34.33243 -58.77960 18342 ft 426 kts 134°
2026-04-28 18:30 -34.35246 -58.75540 17819 ft 400 kts 147°
2026-04-28 18:30 -34.36753 -58.74310 17484 ft 384 kts 157°
2026-04-28 18:30 -34.39922 -58.72682 16904 ft 359 kts 165°
2026-04-28 18:30 -34.42203 -58.71671 16460 ft 347 kts 166°
2026-04-28 18:31 -34.44440 -58.70695 16024 ft 337 kts 166°
2026-04-28 18:31 -34.46621 -58.69741 15506 ft 328 kts 166°
2026-04-28 18:31 -34.48743 -58.68803 15080 ft 321 kts 166°
2026-04-28 18:31 -34.50824 -58.67875 14687 ft 319 kts 166°
2026-04-28 18:32 -34.52901 -58.66945 14276 ft 316 kts 166°
2026-04-28 18:32 -34.54965 -58.66016 13873 ft 316 kts 166°
2026-04-28 18:32 -34.57025 -58.65087 13502 ft 315 kts 166°
2026-04-28 18:32 -34.59078 -58.64157 13080 ft 314 kts 166°
2026-04-28 18:33 -34.61094 -58.63241 12663 ft 309 kts 166°
2026-04-28 18:33 -34.63095 -58.62331 12250 ft 305 kts 166°
2026-04-28 18:33 -34.65066 -58.61434 11845 ft 300 kts 166°
2026-04-28 18:33 -34.67010 -58.60549 11443 ft 297 kts 167°
2026-04-28 18:34 -34.68923 -58.59680 11056 ft 296 kts 167°
2026-04-28 18:34 -34.70848 -58.58804 10666 ft 294 kts 167°
2026-04-28 18:34 -34.72762 -58.57932 10278 ft 292 kts 167°
2026-04-28 18:34 -34.74659 -58.57068 9877 ft 291 kts 167°
2026-04-28 18:35 -34.76551 -58.56206 9473 ft 289 kts 166°
2026-04-28 18:35 -34.78432 -58.55348 9075 ft 287 kts 166°
2026-04-28 18:35 -34.80269 -58.54506 8886 ft 277 kts 166°
2026-04-28 18:35 -34.82064 -58.53686 8543 ft 275 kts 166°
2026-04-28 18:36 -34.83856 -58.53156 8208 ft 264 kts 180°
2026-04-28 18:36 -34.85676 -58.52904 7896 ft 261 kts 180°
2026-04-28 18:36 -34.87476 -58.52654 7585 ft 259 kts 180°
2026-04-28 18:36 -34.89253 -58.52407 7332 ft 254 kts 180°
2026-04-28 18:37 -34.91001 -58.52164 7083 ft 250 kts 180°
2026-04-28 18:37 -34.92722 -58.51925 6835 ft 247 kts 180°
2026-04-28 18:37 -34.94424 -58.51691 6610 ft 246 kts 180°
2026-04-28 18:37 -34.96105 -58.51463 6379 ft 246 kts 180°
2026-04-28 18:38 -34.97809 -58.51238 6130 ft 245 kts 180°
2026-04-28 18:38 -34.99499 -58.51021 5880 ft 243 kts 180°
2026-04-28 18:38 -35.01182 -58.50846 5628 ft 240 kts 186°
2026-04-28 18:38 -35.02837 -58.50935 5385 ft 237 kts 189°
2026-04-28 18:39 -35.04482 -58.51081 5137 ft 236 kts 190°
2026-04-28 18:39 -35.06107 -58.51235 5058 ft 237 kts 190°
2026-04-28 18:39 -35.07748 -58.51397 5045 ft 236 kts 190°
2026-04-28 18:39 -35.09399 -58.51569 4762 ft 238 kts 190°
2026-04-28 18:40 -35.11049 -58.51377 4335 ft 245 kts 163°
2026-04-28 18:40 -35.12440 -58.50160 3945 ft 250 kts 131°
2026-04-28 18:40 -35.13148 -58.48231 3566 ft 251 kts 97°
2026-04-28 18:40 -35.12975 -58.46185 3203 ft 243 kts 64°
2026-04-28 18:41 -35.12028 -58.44551 2833 ft 232 kts 37°
2026-04-28 18:41 -35.10649 -58.43677 2551 ft 215 kts 12°
2026-04-28 18:41 -35.09252 -58.43543 2496 ft 194 kts 343°
2026-04-28 18:41 -35.07941 -58.44013 2481 ft 197 kts 342°
2026-04-28 18:42 -35.06624 -58.44432 2494 ft 194 kts 342°
2026-04-28 18:42 -35.05337 -58.44858 2475 ft 193 kts 341°
2026-04-28 18:42 -35.04036 -58.45305 2475 ft 195 kts 341°
2026-04-28 18:42 -35.02725 -58.45759 2469 ft 196 kts 341°
2026-04-28 18:43 -35.01412 -58.46215 2466 ft 195 kts 341°
2026-04-28 18:43 -35.00108 -58.46671 2462 ft 194 kts 341°
2026-04-28 18:43 -34.98805 -58.47126 2438 ft 194 kts 341°
2026-04-28 18:43 -34.97515 -58.47578 2446 ft 189 kts 341°
2026-04-28 18:44 -34.96305 -58.47997 2432 ft 177 kts 341°
2026-04-28 18:44 -34.93945 -58.48823 2262 ft 179 kts 341°
2026-04-28 18:44 -34.92775 -58.49229 2002 ft 168 kts 341°
2026-04-28 18:45 -34.91690 -58.49589 1802 ft 152 kts 341°
2026-04-28 18:45 -34.90722 -58.49941 1600 ft 138 kts 340°
2026-04-28 18:45 -34.89809 -58.50264 1420 ft 137 kts 340°
2026-04-28 18:45 -34.88889 -58.50585 1233 ft 138 kts 341°
2026-04-28 18:46 -34.87947 -58.50951 1125 ft 142 kts 338°
2026-04-28 18:46 -34.87010 -58.51323 934 ft 143 kts 340°
2026-04-28 18:46 -34.86060 -58.51654 720 ft 141 kts 343°
2026-04-28 18:46 -34.85120 -58.51958 488 ft 141 kts 345°
2026-04-28 18:47 -34.84181 -58.52236 299 ft 134 kts 345°
2026-04-28 18:47 -34.83305 -58.52525 96 ft 125 kts 343°
2026-04-28 18:47 -34.82551 -58.52799 65 ft 97 kts 347°
2026-04-28 18:47 -34.82030 -58.52975 64 ft 54 kts 345°
2026-04-28 18:48 -34.81704 -58.53095 65 ft 33 kts 344°
2026-04-28 18:48 -34.81551 -58.53181 62 ft 22 kts 310°
2026-04-28 18:48 -34.81515 -58.53249 66 ft 5 kts 300°
2026-04-28 18:48 -34.81490 -58.53299 66 ft 9 kts 301°
2026-04-28 18:49 -34.81466 -58.53349 63 ft 7 kts 300°
2026-04-28 18:49 -34.81459 -58.53365 67 ft 7 kts 300°
2026-04-28 18:49 -34.81410 -58.53475 67 ft 12 kts 297°
2026-04-28 18:49 -34.81382 -58.53539 66 ft 7 kts 298°
2026-04-28 18:50 -34.81325 -58.53588 62 ft 13 kts 353°
2026-04-28 18:50 -34.81281 -58.53607 67 ft 7 kts 310°
2026-04-28 18:50 -34.81283 -58.53652 67 ft 7 kts 253°
2026-04-28 18:50 -34.81305 -58.53717 67 ft 1 kts 251°
2026-04-28 18:51 -34.81306 -58.53722 67 ft 0 kts 252°